Flag for Germany Weather past 2 weeks in Wilhelmshaven, Lower Saxony, Germany

Now
37 °F

Passing clouds.


Feels Like: 32 °F
Forecast: 33 / 45 °F
Wind: 7 mph from West

Location: Wittmundhaven

Current Time: Feb 27, 2015 at 10:12:33 PM

Latest Report: Feb 27, 2015 at 9:20 PM


Visibility: N/A

Pressure: 30.09 "Hg

Humidity: 87%

Dew point: 34 °F

Location of WilhelmshavenLocation

Historic Weather in Wilhelmshaven — Graph

°F

Wilhelmshaven temperature yesterday

Maximum temperature yesterday: 48 °F (at 3:20 PM)
Minimum temperature yesterday: 34 °F (at 12:20 AM)
Average temperature yesterday: 41 °F

Past Weeks' High & Low Weather Summary

 TemperatureHumidityPressure
High48 °F (Feb 14, 2:20 PM)100% (Feb 13, 6:20 AM)30.69 "Hg (Feb 13, 6:20 AM)
Low25 °F (Feb 17, 6:20 AM)61% (Feb 22, 3:20 PM)29.21 "Hg (Feb 23, 6:20 AM)
Average38 °F87%29.92 "Hg
* Reported Feb 12 8:20 PM — Feb 27 8:20 PM, Wilhelmshaven, Weather by CustomWeather, © 2015

Note: Actual official high and low records may vary slightly from our data, if they occured in-between our weather recording intervals... More about our weather records

Advertising

Wilhelmshaven weather history for previous 24 hours

 ConditionsComfort  
Time TempWeatherWind HumidityBarometerVisibility
8:20 PM
Fri, Feb 27
37 °FPassing clouds.6 mph87%30.07 "HgN/A
7:20 PM37 °FPassing clouds.6 mph87%30.07 "HgN/A
6:20 PM39 °FPassing clouds.6 mph81%30.04 "HgN/A
5:20 PM41 °FPassing clouds.10 mph70%30.01 "HgN/A
4:20 PM43 °FScattered clouds.14 mph66%30.01 "HgN/A
3:20 PM43 °FBroken clouds.13 mph61%30.01 "HgN/A
2:20 PM43 °FBroken clouds.13 mph71%29.98 "HgN/A
1:20 PM43 °FBroken clouds.16 mph71%29.95 "HgN/A
12:20 PM43 °FBroken clouds.16 mph76%29.95 "HgN/A
11:20 AM43 °FBroken clouds.14 mph81%29.92 "HgN/A
10:20 AM43 °FPartly sunny.12 mph81%29.89 "HgN/A
9:20 AM41 °FBroken clouds.12 mph87%29.89 "HgN/A
8:20 AM39 °FBroken clouds.10 mph93%29.86 "HgN/A
7:20 AM41 °FPartly cloudy.10 mph87%29.86 "HgN/A
6:20 AM41 °FPassing clouds.9 mph87%29.83 "HgN/A
5:20 AM41 °FPassing clouds.6 mph93%29.80 "HgN/A
4:20 AM41 °FDrizzle. Fog.9 mph93%29.80 "Hg3 mi
3:20 AM41 °FPassing clouds.10 mph93%29.77 "Hg5 mi
2:20 AM41 °FPassing clouds.14 mph100%29.77 "Hg4 mi
1:20 AM43 °FDrizzle. Fog.7 mph93%29.77 "Hg3 mi
12:20 AM43 °FDrizzle. Fog.9 mph93%29.77 "Hg3 mi
11:20 PM
Thu, Feb 26
43 °FDrizzle. Fog.13 mph93%29.77 "Hg1 mi
10:20 PM43 °FDrizzle. Fog.13 mph93%29.77 "Hg1 mi
Weather by CustomWeather, © 2015

See weather overviewHow to use our weather pages